Temp
-8 -8 -8 -8 -7 -8 -9 -9 -8 -7 -7 -7 -5 -6 -6 -6 -6 -4 -3 -5 -5 -5 -4 -4 -4 -4 -4 -3 -3 -3 -3 -3 -3 -3 -3 -3 -4 -4 -5 -5 -6 -7 -7 -8
-8 -7 -7 -8 -8 -8 -9 -9 -8 -7 -7 -6 -6 -6 -7 -6 -6 -4 -4 -4 -5 -5 -5 -4 -4 -4 -4 -3 -3 -3 -3 -3 -3 -3 -3 -3 -4 -4 -5 -5 -6 -6 -7 -7
-7 -7 -8 -8 -8 -8 -7 -8 -8 -7 -6 -7 -7 -6 -6 -5 -5 -4 -5 -4 -5 -5 -5 -4 -4 -4 -4 -3 -3 -3 -3 -3 -3 -3 -3 -3 -4 -5 -5 -5 -6 -6 -8 -8
-7 -7 -8 -8 -8 -8 -7 -7 -7 -6 -7 -6 -7 -6 -6 -5 -5 -5 -5 -5 -5 -5 -5 -4 -4 -4 -4 -3 -3 -3 -3 -3 -3 -3 -3 -4 -4 -5 -5 -5 -6 -8 -8 -8
-6 -6 -8 -7 -7 -8 -7 -7 -8 -8 -8 -6 -8 -7 -6 -6 -4 -5 -5 -6 -5 -5 -4 -4 -4 -3 -3 -3 -3 -2 -2 -2 -2 -3 -3 -4 -4 -5 -5 -5 -7 -8 -8 -8
-7 -7 -8 -7 -8 -8 -8 -8 -8 -8 -9 -8 -6 -6 -6 -6 -6 -6 -5 -6 -6 -4 -4 -4 -4 -3 -3 -3 -3 -2 -2 -2 -2 -3 -3 -3 -4 -4 -5 -6 -7 -8 -8 -8
-7 -7 -7 -7 -8 -8 -8 -7 -8 -8 -8 -8 -6 -6 -6 -6 -6 -6 -4 -5 -5 -5 -4 -4 -4 -3 -3 -3 -3 -2 -2 -2 -3 -3 -3 -3 -4 -4 -5 -6 -7 -7 -8 -9
-7 -7 -7 -7 -7 -8 -7 -8 -8 -8 -7 -6 -6 -6 -6 -6 -6 -6 -6 -5 -4 -4 -5 -3 -3 -3 -3 -3 -2 -3 -3 -2 -3 -3 -3 -3 -4 -4 -5 -5 -6 -7 -8 -8
-8 -7 -7 -7 -7 -7 -8 -9 -8 -8 -6 -7 -7 -6 -7 -6 -6 -6 -5 -4 -4 -3 -4 -4 -3 -3 -3 -3 -3 -3 -3 -2 -3 -3 -3 -3 -4 -4 -4 -5 -6 -7 -8 -8
-9 -8 -7 -8 -8 -8 -7 -8 -8 -8 -7 -7 -7 -7 -7 -6 -7 -4 -4 -5 -5 -4 -4 -4 -3 -3 -3 -3 -2 -2 -2 -2 -3 -3 -3 -3 -4 -4 -4 -5 -5 -7 -7 -7
-10 -10 -8 -8 -8 -8 -8 -8 -8 -8 -7 -7 -7 -7 -6 -7 -7 -6 -5 -5 -5 -4 -4 -4 -3 -3 -3 -2 -2 -2 -2 -2 -3 -3 -3 -3 -4 -4 -4 -5 -5 -6 -7 -7
-11 -10 -9 -8 -8 -8 -9 -8 -8 -8 -7 -7 -7 -7 -7 -6 -6 -6 -7 -4 -4 -5 -5 -4 -3 -3 -2 -2 -2 -2 -2 -2 -3 -3 -3 -3 -4 -4 -5 -5 -5 -6 -7 -8
-12 -9 -8 -9 -8 -8 -9 -8 -8 -8 -7 -7 -7 -6 -7 -6 -6 -6 -7 -4 -5 -6 -5 -4 -3 -3 -3 -2 -2 -2 -2 -2 -2 -3 -3 -3 -4 -4 -4 -5 -5 -6 -7 -8
-12 -10 -9 -8 -9 -8 -9 -9 -8 -8 -7 -6 -6 -6 -6 -6 -7 -7 -6 -5 -5 -6 -4 -4 -3 -3 -3 -2 -2 -2 -2 -2 -2 -3 -3 -3 -4 -4 -4 -5 -5 -6 -7 -8
-12 -11 -9 -8 -8 -8 -9 -9 -8 -8 -7 -7 -6 -7 -6 -7 -7 -6 -6 -5 -6 -6 -4 -4 -3 -3 -3 -2 -2 -2 -2 -2 -2 -3 -3 -3 -3 -4 -5 -5 -6 -7 -8 -9
-12 -11 -10 -8 -8 -8 -8 -8 -8 -8 -7 -7 -6 -7 -7 -7 -7 -7 -7 -6 -6 -6 -4 -4 -3 -3 -3 -2 -2 -2 -2 -2 -2 -3 -3 -3 -3 -4 -5 -5 -6 -7 -8 -9
-12 -10 -9 -8 -8 -8 -8 -8 -8 -8 -7 -7 -6 -7 -8 -8 -8 -7 -7 -7 -6 -6 -5 -4 -4 -3 -3 -3 -3 -3 -2 -2 -3 -3 -3 -3 -4 -4 -5 -5 -5 -6 -7 -8
-13 -11 -10 -9 -9 -8 -7 -8 -8 -8 -8 -7 -6 -6 -7 -8 -7 -6 -6 -7 -6 -6 -5 -4 -4 -4 -3 -3 -3 -3 -2 -3 -3 -3 -3 -4 -4 -5 -5 -5 -5 -6 -8 -8
-14 -13 -11 -10 -10 -8 -8 -8 -8 -8 -8 -8 -7 -7 -7 -7 -7 -8 -8 -6 -6 -6 -5 -5 -5 -4 -4 -3 -3 -3 -3 -3 -3 -3 -4 -4 -4 -5 -5 -5 -6 -7 -7 -8
-15 -15 -13 -11 -10 -9 -8 -8 -8 -8 -8 -8 -8 -8 -7 -8 -7 -7 -7 -8 -7 -7 -6 -5 -5 -4 -4 -4 -3 -3 -3 -3 -3 -4 -4 -4 -5 -6 -5 -6 -6 -7 -7 -8
-16 -15 -14 -13 -11 -9 -9 -8 -8 -8 -8 -8 -8 -8 -8 -8 -7 -7 -7 -7 -7 -7 -7 -6 -6 -5 -5 -4 -4 -4 -4 -4 -4 -4 -4 -5 -6 -6 -6 -6 -6 -7 -7 -7
-16 -15 -14 -13 -13 -10 -9 -9 -9 -9 -8 -8 -8 -8 -8 -8 -7 -8 -6 -7 -7 -8 -7 -7 -6 -6 -6 -5 -5 -5 -5 -6 -5 -5 -5 -6 -6 -6 -6 -6 -7 -7 -7 -7
-16 -16 -14 -14 -13 -11 -10 -10 -9 -9 -9 -9 -8 -8 -8 -8 -7 -7 -5 -7 -7 -7 -6 -8 -7 -7 -6 -6 -5 -5 -6 -7 -7 -6 -6 -6 -6 -6 -6 -6 -7 -7 -7 -7
-17 -17 -16 -15 -15 -14 -12 -11 -10 -10 -10 -9 -9 -9 -8 -8 -8 -8 -6 -6 -7 -6 -6 -8 -7 -7 -7 -7 -6 -6 -6 -6 -6 -7 -6 -6 -6 -6 -6 -6 -6 -7 -7 -7
-18 -16 -16 -17 -15 -15 -13 -11 -10 -10 -10 -10 -9 -9 -9 -8 -8 -8 -8 -7 -7 -7 -7 -7 -8 -7 -6 -6 -6 -7 -6 -6 -6 -6 -6 -6 -6 -6 -6 -6 -6 -6 -7 -7
-18 -17 -17 -16 -15 -14 -13 -12 -11 -10 -10 -10 -9 -9 -9 -9 -9 -8 -8 -7 -7 -7 -7 -7 -7 -6 -6 -6 -6 -6 -6 -6 -6 -6 -6 -6 -6 -6 -6 -6 -6 -6 -7 -7
Height
5867 5868 5871 5880 5886 5888 5886 5887 5888 5895 5898 5896 5894 5899 5906 5907 5906 5908 5906 5905 5903 5905 5906 5907 5911 5916 5921 5924 5927 5930 5933 5935 5936 5937 5938 5939 5940 5939 5939 5940 5939 5938 5936 5937
5859 5857 5872 5877 5880 5883 5883 5884 5889 5890 5893 5895 5894 5897 5898 5905 5907 5905 5903 5903 5901 5904 5905 5907 5910 5916 5920 5924 5927 5931 5933 5936 5937 5938 5940 5941 5942 5941 5941 5940 5940 5940 5939 5938
5849 5861 5868 5871 5875 5878 5879 5883 5888 5889 5888 5891 5892 5892 5895 5904 5906 5904 5901 5902 5902 5903 5906 5907 5911 5915 5920 5924 5928 5931 5933 5936 5939 5940 5941 5942 5943 5943 5943 5941 5941 5941 5940 5939
5843 5855 5857 5863 5867 5873 5876 5881 5885 5888 5885 5887 5890 5890 5892 5899 5901 5903 5902 5900 5903 5904 5906 5908 5911 5916 5920 5923 5928 5931 5934 5936 5939 5941 5943 5944 5944 5944 5944 5943 5943 5942 5943 5942
5838 5846 5850 5854 5862 5867 5873 5877 5881 5886 5887 5888 5892 5895 5895 5895 5898 5904 5904 5901 5901 5905 5904 5906 5910 5915 5919 5923 5928 5931 5934 5937 5940 5942 5943 5944 5945 5944 5945 5945 5945 5945 5945 5945
5829 5838 5842 5851 5858 5862 5869 5876 5879 5883 5885 5884 5890 5896 5896 5890 5895 5899 5903 5900 5899 5903 5904 5905 5908 5914 5919 5923 5928 5932 5934 5938 5941 5942 5944 5945 5945 5946 5945 5946 5947 5947 5946 5947
5819 5827 5836 5843 5848 5857 5863 5869 5874 5877 5880 5882 5891 5893 5889 5891 5892 5893 5901 5901 5900 5897 5903 5905 5910 5915 5919 5923 5927 5931 5934 5937 5940 5942 5944 5945 5946 5947 5946 5947 5948 5948 5947 5947
5812 5818 5828 5835 5840 5848 5854 5862 5867 5871 5876 5883 5889 5887 5886 5886 5889 5887 5888 5892 5901 5899 5898 5905 5909 5913 5917 5922 5926 5930 5934 5937 5940 5942 5944 5945 5946 5947 5947 5947 5948 5948 5948 5948
5802 5809 5823 5829 5838 5844 5849 5852 5864 5870 5873 5878 5881 5880 5886 5888 5890 5892 5887 5892 5898 5896 5898 5902 5907 5912 5917 5921 5925 5929 5933 5936 5940 5942 5943 5945 5946 5947 5947 5948 5949 5948 5947 5946
5796 5802 5811 5822 5830 5837 5841 5853 5857 5860 5865 5868 5874 5877 5880 5885 5879 5885 5883 5885 5888 5894 5897 5901 5906 5910 5916 5919 5924 5927 5931 5935 5938 5941 5942 5944 5945 5946 5947 5948 5948 5947 5946 5946
5783 5791 5803 5811 5812 5825 5835 5839 5846 5855 5860 5862 5867 5870 5877 5879 5883 5881 5877 5879 5883 5890 5895 5898 5904 5908 5913 5918 5923 5927 5930 5934 5937 5939 5941 5943 5945 5946 5946 5947 5947 5946 5945 5945
5766 5774 5786 5798 5810 5816 5830 5834 5842 5845 5852 5857 5862 5867 5869 5873 5877 5877 5876 5878 5879 5886 5892 5895 5900 5905 5911 5917 5921 5926 5929 5933 5935 5937 5939 5940 5943 5944 5945 5946 5945 5945 5945 5945
5758 5767 5778 5791 5803 5809 5813 5826 5834 5841 5847 5849 5857 5863 5866 5865 5868 5872 5874 5875 5873 5882 5890 5894 5898 5903 5909 5914 5920 5923 5927 5931 5933 5935 5937 5938 5940 5942 5944 5944 5944 5944 5944 5944
5744 5756 5765 5779 5794 5807 5812 5818 5827 5834 5837 5845 5849 5857 5862 5861 5861 5865 5868 5873 5873 5880 5886 5890 5896 5901 5906 5911 5917 5921 5924 5927 5930 5933 5935 5936 5938 5940 5942 5943 5944 5943 5943 5943
5732 5745 5757 5776 5787 5792 5800 5806 5820 5825 5832 5838 5848 5852 5857 5858 5859 5861 5865 5867 5868 5876 5881 5886 5893 5899 5904 5908 5913 5917 5921 5925 5928 5930 5932 5934 5935 5937 5940 5942 5941 5941 5941 5940
5719 5736 5745 5767 5778 5784 5790 5797 5804 5819 5825 5833 5842 5844 5847 5848 5851 5851 5852 5857 5863 5872 5876 5880 5887 5894 5900 5905 5909 5914 5918 5921 5924 5926 5928 5931 5933 5935 5937 5939 5938 5937 5938 5938
5721 5734 5745 5765 5774 5777 5784 5796 5803 5810 5822 5829 5836 5840 5841 5840 5848 5848 5846 5848 5858 5866 5872 5876 5883 5890 5896 5901 5906 5910 5913 5916 5920 5922 5925 5927 5930 5931 5934 5936 5934 5934 5935 5936
5720 5732 5741 5759 5765 5769 5786 5797 5804 5810 5818 5825 5831 5836 5836 5842 5843 5845 5848 5857 5860 5863 5871 5874 5879 5886 5892 5896 5901 5904 5908 5913 5915 5918 5921 5924 5926 5928 5931 5932 5931 5931 5931 5932
5714 5725 5736 5748 5756 5769 5784 5796 5803 5808 5817 5822 5826 5829 5833 5838 5842 5845 5848 5855 5858 5859 5871 5874 5877 5884 5888 5894 5898 5901 5905 5909 5912 5915 5917 5919 5922 5925 5927 5928 5928 5928 5928 5929
5706 5717 5725 5741 5748 5756 5785 5791 5792 5793 5799 5805 5813 5818 5823 5827 5833 5832 5835 5845 5849 5855 5866 5871 5874 5879 5885 5889 5894 5898 5902 5905 5908 5910 5912 5914 5917 5921 5924 5924 5924 5925 5925 5925
5692 5704 5714 5731 5737 5751 5772 5777 5783 5784 5792 5795 5804 5809 5817 5820 5828 5834 5839 5840 5841 5851 5856 5866 5871 5877 5882 5885 5890 5894 5897 5900 5902 5904 5907 5910 5913 5917 5919 5920 5921 5921 5921 5921
5687 5698 5709 5722 5730 5750 5763 5769 5772 5773 5783 5788 5796 5801 5805 5815 5820 5823 5835 5837 5840 5848 5851 5860 5868 5873 5877 5881 5885 5889 5893 5894 5897 5900 5903 5906 5910 5912 5915 5916 5917 5917 5917 5917
5676 5689 5704 5717 5731 5738 5748 5756 5759 5765 5773 5784 5793 5799 5800 5806 5812 5816 5825 5833 5837 5842 5838 5850 5864 5870 5873 5876 5881 5885 5890 5890 5893 5896 5899 5902 5905 5907 5909 5911 5912 5912 5912 5912
5673 5683 5693 5710 5717 5719 5731 5739 5745 5751 5761 5776 5784 5791 5797 5801 5807 5810 5817 5822 5832 5836 5839 5842 5850 5858 5866 5872 5876 5881 5884 5886 5889 5892 5894 5897 5900 5903 5904 5905 5906 5907 5907 5906
5661 5670 5682 5696 5708 5713 5727 5733 5738 5742 5751 5763 5775 5784 5791 5797 5800 5805 5815 5822 5824 5830 5833 5840 5845 5851 5859 5866 5871 5875 5878 5880 5884 5887 5890 5892 5894 5896 5898 5899 5899 5900 5901 5900
5658 5663 5672 5683 5697 5706 5712 5721 5729 5733 5741 5755 5765 5774 5782 5789 5795 5800 5804 5816 5820 5821 5827 5834 5843 5848 5853 5860 5865 5868 5872 5875 5877 5880 5883 5886 5888 5890 5891 5892 5892 5893 5893 5893
Wind_Speed
29 32 31 30 27 19 7 19 24 22 17 12 9 7 5 9 14 11 6 6 6 7 9 15 17 20 19 16 19 19 18 15 14 12 11 11 9 8 10 11 14 16 17 16
35 38 27 29 31 27 14 21 19 19 21 18 4 5 9 7 7 13 8 7 7 6 9 17 18 20 21 19 20 20 19 15 13 11 10 10 8 8 9 11 14 16 16 17
40 28 24 29 31 31 27 17 5 13 9 15 5 2 0 7 9 8 11 7 6 6 9 19 19 20 21 21 21 22 19 16 13 11 9 7 6 7 7 11 12 14 16 17
42 32 31 32 34 30 33 19 14 1 10 8 16 5 3 11 9 5 5 8 3 6 8 15 18 19 22 23 23 23 20 17 13 11 9 7 7 7 8 9 12 13 13 15
41 39 37 36 36 31 30 21 15 14 27 2 14 19 14 21 12 8 3 7 2 5 7 12 15 20 25 24 25 24 20 16 13 11 9 8 7 6 7 8 11 13 14 15
41 39 41 34 30 34 25 23 22 20 26 24 15 18 20 26 29 26 15 5 9 5 9 11 18 23 25 25 26 23 20 17 13 10 9 8 8 5 7 8 8 12 14 14
44 43 42 39 36 32 30 26 29 25 25 22 10 10 22 25 25 31 17 11 11 10 10 11 15 21 24 26 27 24 20 17 13 11 10 8 7 6 6 6 7 10 11 12
45 45 42 42 42 35 39 30 32 27 20 8 11 19 28 30 22 16 23 24 15 12 11 13 17 21 24 27 27 23 20 16 13 11 9 8 8 6 5 4 5 8 7 8
47 46 38 40 39 39 39 38 26 26 24 20 23 27 28 31 31 24 4 17 13 13 11 14 17 21 25 28 27 24 20 17 14 11 9 8 8 6 5 3 3 6 6 6
45 46 44 39 39 39 41 35 32 34 34 32 34 30 30 25 14 15 12 12 8 12 12 15 17 23 25 30 29 26 21 18 15 12 10 9 9 8 5 3 2 3 4 5
45 47 45 46 47 44 39 44 42 36 39 37 34 34 26 26 14 18 17 13 8 10 12 15 17 26 28 32 29 25 21 17 14 12 10 9 9 9 8 5 3 2 4 8
47 53 50 47 46 37 36 42 44 42 42 41 32 27 30 30 19 27 24 21 11 5 15 16 15 25 32 32 28 24 19 17 15 13 12 10 9 8 8 6 5 2 3 6
52 55 55 47 49 44 38 39 40 45 38 46 34 30 32 38 32 31 33 27 20 15 16 18 17 20 32 32 27 23 19 18 16 14 13 10 9 8 8 6 5 3 2 5
62 60 59 55 47 44 39 34 42 43 46 42 42 32 31 32 26 36 32 29 11 14 17 18 20 22 29 32 30 26 22 19 17 15 14 12 10 10 7 5 4 3 2 4
66 63 61 55 50 51 43 36 33 44 43 41 35 23 28 30 33 26 36 31 14 18 18 18 24 26 29 32 32 28 23 19 18 16 16 14 12 11 8 6 6 5 2 11
69 66 65 59 56 52 46 43 45 36 43 41 33 29 35 32 16 20 37 32 20 16 15 20 29 29 30 32 32 29 25 21 19 17 17 15 12 11 10 7 7 5 4 5
65 65 64 58 57 55 53 45 42 35 28 41 39 32 36 37 25 28 31 26 20 16 15 22 29 29 30 30 30 28 27 25 21 20 18 14 12 13 11 9 6 6 3 2
62 61 63 60 60 59 52 40 35 32 31 31 40 39 34 30 35 29 24 8 11 12 17 23 26 28 29 30 30 31 29 25 23 20 17 15 13 13 13 7 4 6 5 5
53 57 62 62 68 63 51 40 36 22 19 28 35 44 36 35 34 32 31 27 15 12 14 16 21 25 26 26 27 27 26 25 23 18 16 14 13 13 12 3 2 6 5 2
60 49 60 62 67 67 51 42 40 31 25 30 28 41 38 38 38 37 20 23 16 17 12 18 20 22 22 24 26 25 24 23 21 18 16 15 13 15 8 4 3 6 5 3
56 56 55 60 67 66 57 50 42 37 33 29 42 44 40 36 37 39 33 32 31 23 17 12 15 19 21 23 23 25 24 21 19 18 16 16 18 15 9 5 4 8 9 8
52 53 54 55 62 66 60 53 46 46 42 36 40 42 48 40 42 41 28 34 39 35 28 22 18 15 13 21 24 24 21 16 18 15 15 20 20 16 11 9 9 12 14 13
48 49 50 56 54 65 66 58 50 47 43 44 37 41 47 45 47 46 37 27 38 37 38 37 29 22 19 19 22 23 19 19 17 18 18 24 26 23 17 13 14 15 16 15
39 36 45 50 47 57 66 61 61 51 48 42 46 42 45 52 46 48 52 34 54 39 44 43 42 39 35 28 25 23 24 25 24 23 22 21 25 27 25 21 20 18 18 18
39 43 47 46 54 50 55 62 70 65 58 49 56 45 44 44 56 60 58 40 42 34 38 37 43 43 33 30 31 29 26 26 24 24 26 26 24 24 25 26 24 17 21 22
41 44 46 49 56 56 56 66 62 68 69 62 53 57 53 50 50 52 49 49 40 32 37 38 30 31 34 25 31 30 29 29 29 28 26 28 29 31 31 29 27 22 23 26
Wind_Direction
225 226 214 202 198 193 215 269 274 232 223 209 171 116 336 325 342 330 339 351 341 318 234 197 186 178 171 159 156 155 142 131 119 106 91 79 65 53 59 59 69 75 82 82
220 227 211 203 203 200 191 255 269 224 207 197 147 17 352 310 319 315 331 15 342 320 219 197 184 180 176 167 162 157 145 138 124 113 98 91 80 59 64 62 67 71 80 73
225 224 218 211 210 215 210 230 297 234 240 160 150 317 220 333 321 296 317 14 355 296 204 189 183 185 181 169 169 159 149 144 133 123 111 100 89 75 70 71 70 69 71 71
229 215 218 212 213 217 218 200 189 356 320 40 339 296 318 323 248 321 308 322 31 265 210 195 189 187 183 171 173 160 153 147 144 134 125 113 101 91 85 83 78 82 83 81
224 218 217 214 209 214 215 195 218 261 280 268 298 300 307 305 300 319 290 280 307 185 210 199 200 186 177 172 173 162 156 151 150 136 133 126 111 98 94 92 92 100 92 86
229 224 221 220 215 214 205 203 203 220 242 259 241 238 267 284 297 308 255 230 243 185 180 189 176 179 172 177 170 163 158 156 154 149 141 137 123 110 110 105 110 105 95 85
225 221 218 215 217 217 197 196 205 211 208 242 220 232 265 266 280 286 258 227 204 200 175 186 181 179 176 179 170 167 161 160 161 156 148 142 131 132 112 116 129 112 96 81
231 225 218 215 216 211 200 199 216 211 213 167 194 243 254 270 272 283 297 248 212 189 181 182 189 186 182 178 172 170 167 164 168 163 152 155 147 143 125 126 136 133 117 92
231 228 220 222 222 214 202 202 207 218 192 215 254 251 243 260 268 287 151 189 205 184 185 200 197 191 188 178 176 175 172 171 174 172 164 169 162 154 141 149 148 132 118 83
225 233 217 218 215 222 213 200 206 209 207 216 234 248 247 262 234 197 180 185 216 210 194 198 205 201 192 184 182 178 176 178 181 176 173 179 175 171 165 181 175 137 110 75
219 224 218 210 206 208 212 204 205 214 213 221 230 243 259 248 248 237 217 201 217 226 213 204 202 207 200 190 186 181 182 184 183 186 184 183 187 184 186 194 207 189 70 44
210 209 213 215 207 192 210 217 209 212 210 217 222 243 262 260 269 213 204 202 177 311 245 218 206 198 200 191 189 183 186 190 192 197 197 194 198 196 199 206 229 209 60 40
203 211 212 204 202 199 199 214 216 215 215 213 221 231 254 269 284 210 211 223 192 251 248 221 206 200 197 188 188 184 191 199 204 203 204 199 204 207 208 211 228 208 72 17
202 207 210 198 197 198 206 212 220 217 220 217 217 226 240 259 257 213 208 210 205 244 223 219 202 201 193 189 193 196 202 205 210 208 210 209 210 213 214 188 219 181 79 7
200 203 209 197 191 193 195 202 228 225 222 220 217 234 240 266 268 238 213 209 208 237 214 218 206 202 200 198 201 205 209 211 213 216 218 221 223 222 210 172 153 128 87 35
202 199 206 193 191 189 192 198 204 237 227 213 217 222 238 250 250 266 277 190 191 228 209 218 201 200 205 204 206 210 215 217 217 218 220 229 231 221 207 177 156 120 86 29
206 203 205 194 191 190 194 196 203 210 232 221 211 218 248 265 275 260 244 174 193 207 201 201 194 200 206 208 210 210 213 216 216 219 223 229 229 216 207 184 135 117 108 63
209 207 204 195 196 198 196 190 201 207 229 229 212 213 238 259 266 262 260 205 174 185 198 194 193 206 208 209 209 211 214 216 218 222 223 228 230 217 207 185 118 102 101 41
208 209 207 198 202 206 196 186 193 195 217 244 227 211 228 242 250 266 278 187 158 141 214 205 199 208 212 215 215 215 216 218 221 223 225 228 213 216 205 214 151 129 131 99
218 211 209 203 202 207 191 186 184 185 203 212 214 211 219 230 240 254 222 164 155 165 196 206 209 211 213 216 219 220 220 223 222 224 224 216 203 196 221 220 181 199 196 222
217 218 216 204 207 205 188 190 186 196 194 201 211 209 214 228 237 242 240 185 172 186 175 225 206 210 216 218 218 217 218 218 215 214 216 204 195 202 214 219 251 239 238 261
217 216 215 207 213 203 191 192 193 198 194 198 203 212 210 218 226 242 205 191 180 183 176 198 234 222 231 222 215 217 211 203 202 201 204 199 206 214 225 226 245 248 254 272
214 213 213 209 209 208 200 200 196 200 201 200 202 208 218 216 221 228 216 189 196 192 182 191 216 241 241 226 219 218 191 208 213 216 218 216 215 220 232 237 244 245 257 279
210 204 211 206 203 214 206 206 208 207 200 200 203 207 213 218 223 231 232 242 221 229 203 195 201 207 217 226 229 216 211 217 218 220 228 232 231 233 241 248 253 254 265 284
186 199 193 198 203 210 211 203 210 212 203 196 202 206 211 217 223 224 222 228 227 200 189 200 208 210 216 221 223 218 221 229 231 231 232 239 242 248 251 253 252 257 261 278
193 195 186 194 198 209 207 205 202 212 211 203 200 204 208 212 218 230 239 227 229 219 215 204 219 225 226 240 232 223 229 234 239 241 244 245 247 247 250 256 258 262 261 267